Regional Weather Roundup
Issued by NWS

Home | Current Version | Previous Version | Graphics & Text | Print | Product List | Glossary Off
Versions: 1 2 3 4 5 6 7 8 9 10 11 12 13 14 15 16 17 18 19 20 21 22 23 24 25 26 27 28 29 30 31 32 33 34 35 36 37 38 39 40 41 42 43 44 45 46 47 48 49 50

000
ASUS43 KDMX 191301
RWRIA

WEATHER ROUNDUP FOR IOWA
NATIONAL WEATHER SERVICE DES MOINES IA
700 AM CST THU JAN 19 2017

NOTE: "FAIR" INDICATES FEW OR NO CLOUDS BELOW 12,000 FEET WITH NO
SIGNIFICANT WEATHER AND/OR OBSTRUCTIONS TO VISIBILITY.

* - THESE STATIONS ARE NOT NWS STATIONS...THUS NOT UNDER NWS
QUALITY CONTROL.  THEY ALSO DO NOT REPORT WEATHER SUCH
AS PRECIPITATION OR FOG.

IAZ001>003-012>014-020>022-031>034-043>046-191400-
   NORTHWEST IOWA

CITY           SKY/WX    TMP DP  RH WIND       PRES   REMARKS
CARROLL *      FOG       32  32 100 SE8       29.81F VSB<1/4 WCI  25
CHEROKEE *     CLOUDY    32  32 100 SE3       29.79F FOG
DENISON *      PTCLDY    34  34 100 SE6       29.78S FOG     WCI  29
LE MARS *      PTCLDY    34  32  93 SE3       29.78F
ORANGE CITY *  CLEAR     34  34 100 S6        29.76F WCI  29
SHELDON *      PTCLDY    34  34 100 S7        29.75F WCI  28
SIOUX CITY     PTCLDY    33  31  92 E8        29.76F WCI  26
SPENCER        CLEAR     32  31  96 S6        29.78F FOG     WCI  26
STORM LAKE *   CLOUDY    32  32 100 SE6       29.79S FOG     WCI  26
$$

IAZ055>058-069>071-079>083-090>094-191400-
   SOUTHWEST IOWA

CITY           SKY/WX    TMP DP  RH WIND       PRES   REMARKS
ATLANTIC *     MOCLDY    32  32 100 N3        29.80F FOG
AUDUBON *      CLEAR     32  30  93 CALM      29.81S FOG
CLARINDA *     CLOUDY    34  34 100 CALM      29.82S FOG
COUNCIL BLFS * MOCLDY    34  34 100 SE7       29.79R FOG     WCI  28
CRESTON *      CLOUDY    34  34 100 E7        29.83F FOG     WCI  28
HARLAN  *      CLEAR     32  32 100 S5        29.83S FOG     WCI  27
LAMONI         CLOUDY    37  35  92 CALM      29.82S
RED OAK *      CLOUDY    32  32 100 CALM      29.80F FOG
SHENANDOAH *   CLOUDY    34  32  93 CALM      29.80F FOG
$$

IAZ047>049-059>061-072>074-084-191400-
   CENTRAL IOWA

CITY           SKY/WX    TMP DP  RH WIND       PRES   REMARKS
AMES           FOG       31  31 100 SE9       29.86S VSB 1/4 WCI  23
ANKENY *       FOG       30  30 100 CALM      29.86F VSB 1/2
BOONE *        FOG       32  32 100 SE10      29.83F VSB<1/4 WCI  24
CHARITON *     CLOUDY    34  32  93 NE7       29.83F FOG     WCI  28
DES MOINES     MOCLDY    32  31  96 E5        29.85F FOG     WCI  27
GRINNELL*      FOG       30  30  99 E6        29.88F VSB 1/2 WCI  24
KNOXVILLE *    CLOUDY    32  32 100 E7        29.84F FOG     WCI  26
MARSHALLTOWN   FOG       30  30 100 SE7       29.87S VSB 1/4 WCI  23
NEWTON *       FOG       30  30 100 E7        29.86F VSB 1/4 WCI  23
PELLA *        CLOUDY    31  31  99 E3        29.88F FOG
PERRY *        FOG       32  32 100 SE10      29.83F VSB 1/2 WCI  24
$$

IAZ004>006-015-016-023>025-035-036-191400-
   NORTH CENTRAL IOWA

CITY           SKY/WX    TMP DP  RH WIND       PRES   REMARKS
ALGONA *       FOG       32  32 100 S9        29.81S VSB<1/4 WCI  24
CLARION *      FOG       32  32 100 SE12      29.84S VSB 1/4 WCI  23
ESTHERVILLE    CLEAR     30  30 100 S3        29.79S FOG
FORT DODGE *   CLOUDY    32  30  93 SE7       29.84S VSB 1/2 WCI  26
MASON CITY     FOG       31  30  96 S10       29.86R VSB 1/4 WCI  22
FOREST CITY *  FOG       32  32 100 S8        29.84R VSB 1/4 WCI  25
WEBSTER CITY * FOG       32  32 100 SE13      29.83S VSB<1/4 WCI  22
IOWA FALLS *   SNOW      32  32  99 SE7       29.87S VSB 1/4 WCI  26
$$

IAZ007>011-017>019-026>030-037>042-050>054-066-191400-
   NORTHEAST IOWA

CITY           SKY/WX    TMP DP  RH WIND       PRES   REMARKS
CEDAR RAPIDS   FOG       29  29 100 SE6       29.89F VSB 1/4 WCI  23
CHARLES CITY * FOG       32  32 100 S8        29.88S VSB<1/4 WCI  25
CLINTON *      CLEAR     28  27  96 E8        29.94F FOG     WCI  20
DECORAH *      FOG       30  30 100 VRB7      29.89S VSB<1/4 WCI  23
DUBUQUE        FOG       30  29  96 S7        29.92F VSB 1/4 WCI  23
MONTICELLO *   FOG       30  30 100 E5        29.92F VSB 1/4 WCI  25
OELWEIN *      FOG       30  30 100 SE7       29.89S VSB<1/4 WCI  23
WATERLOO       FOG       31  30  96 SE5       29.89S VSB 1/4 WCI  26
$$

IAZ064-065-067-068-078-191400-
   EAST CENTRAL IOWA

CITY           SKY/WX    TMP DP  RH WIND       PRES   REMARKS
DAVENPORT      CLEAR     30  29  96 SE6       29.93F FOG     WCI  24
IOWA CITY      CLEAR     28  27  96 CALM      29.93S FOG
MUSCATINE *    FOG       27  25  93 CALM      29.93F VSB 1/4
QUAD CITIES    CLEAR     28  26  92 E6        29.93F FOG     WCI  22
$$

IAZ062-063-075>077-085>089-095>099-191400-
   SOUTHEAST IOWA

CITY           SKY/WX    TMP DP  RH WIND       PRES   REMARKS
BURLINGTON     MOCLDY    35  34  96 SE7       29.91F WCI  29
FAIRFIELD *    CLOUDY    34  32  93 E5        29.87F FOG     WCI  30
FORT MADISON * CLOUDY    37  36  93 E8        29.91F FOG     WCI  31
KEOKUK *       CLOUDY    36  36 100 E3        29.90F FOG
OSKALOOSA *    CLOUDY    32  32 100 E9        29.87F FOG     WCI  24
OTTUMWA        CLOUDY    33  31  92 E7        29.86F FOG     WCI  27
WASHINGTON *   MOCLDY    30  30 100 E7        29.91F FOG     WCI  23
$$

ABBREVIATIONS USED IN REMARKS
   TC - TEMPERATURES IN CELSIUS
  WCI - WIND CHILL INDEX
   HX - HEAT INDEX
  VSB - VISIBILITY
$$





USA.gov is the U.S. government's official web portal to all federal, state and local government web resources and services.